This is the latest recevied weather packets stored in our database for station/object PA3CPS. If no packets are shown the sender has not sent any weather packets the latest 10 day(s).
| Time | Temp. | Humidity | Pressure | Rain* | Wind** | Luminosity | Snow |
|---|---|---|---|---|---|---|---|
| 1777188961 | 8.89° C | 76% | 1025.7 hPa | 0 mm | - | 482 W/m² | - |
| 1777188659 | 8.89° C | 78% | 1025.8 hPa | 0 mm | - | 459 W/m² | - |
| 1777188358 | 8.33° C | 80% | 1025.8 hPa | 0 mm | - | 441 W/m² | - |
| 1777188057 | 8.33° C | 79% | 1025.9 hPa | 0 mm | - | 427 W/m² | - |
| 1777187756 | 8.33° C | 81% | 1025.7 hPa | 0 mm | - | 417 W/m² | - |
| 1777187454 | 7.78° C | 82% | 1025.8 hPa | 0 mm | - | 396 W/m² | - |
| 1777187152 | 7.78° C | 84% | 1025.8 hPa | 0 mm | - | 376 W/m² | - |
| 1777186853 | 7.22° C | 87% | 1025.7 hPa | 0 mm | - | 357 W/m² | - |
| 1777186551 | 6.67° C | 90% | 1025.6 hPa | 0 mm | - | 339 W/m² | - |
| 1777186247 | 6.67° C | 91% | 1025.6 hPa | 0 mm | - | 93 W/m² | - |
| 1777185947 | 6.11° C | 92% | 1025.6 hPa | 0 mm | - | 165 W/m² | - |
| 1777185644 | 5.56° C | 92% | 1025.6 hPa | 0 mm | - | 206 W/m² | - |
| 1777185344 | 5.56° C | 93% | 1025.5 hPa | 0 mm | - | 207 W/m² | - |
| 1777185041 | 5° C | 93% | 1025.6 hPa | 0 mm | - | 128 W/m² | - |
| 1777184738 | 5° C | 93% | 1025.5 hPa | 0 mm | - | 123 W/m² | - |
| 1777184436 | 5° C | 93% | 1025.5 hPa | 0 mm | - | 72 W/m² | - |
| 1777184132 | 4.44° C | 92% | 1025.6 hPa | 0 mm | - | 53 W/m² | - |
| 1777183832 | 4.44° C | 92% | 1025.4 hPa | 0 mm | - | 79 W/m² | - |
| 1777183532 | 3.89° C | 92% | 1025.4 hPa | 0 mm | - | 97 W/m² | - |
| 1777183232 | 3.89° C | 92% | 1025.4 hPa | 0 mm | - | 42 W/m² | - |
| 1777182932 | 3.33° C | 91% | 1025.3 hPa | 0 mm | - | 74 W/m² | - |
| 1777182632 | 2.78° C | 91% | 1025.4 hPa | 0 mm | - | 37 W/m² | - |
| 1777182331 | 2.78° C | 91% | 1025.1 hPa | 0 mm | - | 32 W/m² | - |
| 1777182031 | 2.78° C | 91% | 1025.2 hPa | 0 mm | - | 30 W/m² | - |
| 1777181732 | 2.78° C | 90% | 1025.2 hPa | 0 mm | - | 30 W/m² | - |
* Rain latest hour (hover to see other rain measurements)
** Current wind speed in m/s (hover to see current wind gust speed)